User: anonymous   Login
Location: Unspecified
(0.0000°N, 0.0000°E)
Time: 14:01:19
(UTC+00:00)
Language:

FORTE - Orbit

View from above orbital plane
View from above orbital plane
View from above satellite
View from above satellite

Ground track
Ground track

The orbit data is extracted from the following two-line orbital elements,

1 24920U 97047A   18050.91943349 +.00000000 +00000-0 +24058-4 0  9993
2 24920 069.9548 025.6803 0019526 095.4739 264.8610 14.26279384065165
Epoch (UTC): 19 February 2018 22:03:59
Eccentricity: 0.0019526
inclination: 69.9548°
perigee height: 790 km
apogee height: 818 km
right ascension of ascending node: 25.6803°
argument of perigee: 95.4739°
revolutions per day: 14.26279384
mean anomaly at epoch: 264.8610°
orbit number at epoch: 6516

The dashed part of the orbit path shows where the satellite is in the earth's shadow,  

DLR